| time (UTC) | temp C | wind direction | speed KPH | gust KPH | rain 1hr cm | rain 24hr cm | rain mn cm | humidity % | barometer mb |
| 20260510094705 | 13 | 337 | 1.6 | 4.8 | 0.00 | 0.00 | 0.00 | 91 | 1009.9 |
| 20260510094206 | 13 | 353 | 0.0 | 4.8 | 0.00 | 0.00 | 0.00 | 91 | 1009.9 |
| 20260510093705 | 13 | 339 | 1.6 | 4.8 | 0.00 | 0.00 | 0.00 | 91 | 1009.7 |
| 20260510093205 | 13 | 333 | 0.0 | 1.6 | 0.00 | 0.00 | 0.00 | 91 | 1009.8 |
| 20260510092706 | 13 | 290 | 0.0 | 3.2 | 0.00 | 0.00 | 0.00 | 91 | 1009.8 |
| 20260510091205 | 13 | 291 | 0.0 | 0.0 | 0.00 | 0.00 | 0.00 | 90 | 1009.5 |
| 20260510090705 | 13 | 291 | 0.0 | 0.0 | 0.00 | 0.00 | 0.00 | 90 | 1009.5 |
| 20260510090206 | 13 | 291 | 0.0 | 0.0 | 0.00 | 0.00 | 0.00 | 91 | 1009.4 |
| 20260510085706 | 13 | 245 | 0.0 | 0.0 | 0.00 | 0.00 | 0.00 | 91 | 1009.4 |
| 20260510085205 | 13 | 245 | 0.0 | 0.0 | 0.00 | 0.00 | 0.00 | 90 | 1009.3 |
| 20260510084205 | 13 | 245 | 0.0 | 0.0 | 0.00 | 0.00 | 0.00 | 90 | 1009.2 |
| 20260510083705 | 13 | 254 | 0.0 | 3.2 | 0.00 | 0.00 | 0.00 | 90 | 1009.1 |
| 20260510083205 | 14 | 310 | 0.0 | 0.0 | 0.00 | 0.00 | 0.00 | 90 | 1008.9 |
| 20260510082706 | 14 | 203 | 0.0 | 0.0 | 0.00 | 0.00 | 0.00 | 90 | 1009.0 |
| 20260510082206 | 14 | 203 | 0.0 | 0.0 | 0.00 | 0.00 | 0.00 | 91 | 1008.8 |
| 20260510081706 | 14 | 203 | 0.0 | 0.0 | 0.00 | 0.00 | 0.00 | 90 | 1008.9 |
| 20260510080706 | 14 | 203 | 0.0 | 0.0 | 0.00 | 0.00 | 0.00 | 90 | 1008.7 |
| 20260510080205 | 14 | 203 | 0.0 | 0.0 | 0.00 | 0.00 | 0.00 | 90 | 1008.6 |
| 20260510075706 | 14 | 203 | 0.0 | 0.0 | 0.00 | 0.00 | 0.00 | 90 | 1008.6 |
| 20260510075205 | 14 | 203 | 0.0 | 0.0 | 0.00 | 0.00 | 0.00 | 89 | 1008.6 |
| 20260510074706 | 14 | 203 | 0.0 | 3.2 | 0.00 | 0.00 | 0.00 | 89 | 1008.7 |
| 20260510074205 | 14 | 217 | 1.6 | 4.8 | 0.00 | 0.00 | 0.00 | 89 | 1008.6 |
| 20260510073705 | 14 | 199 | 0.0 | 1.6 | 0.00 | 0.00 | 0.00 | 89 | 1008.6 |
| 20260510073205 | 14 | 288 | 0.0 | 3.2 | 0.00 | 0.00 | 0.00 | 90 | 1008.6 |
| 20260510072705 | 14 | 257 | 0.0 | 8.0 | 0.00 | 0.00 | 0.00 | 90 | 1008.6 |
| 20260510072205 | 14 | 231 | 8.0 | 9.7 | 0.00 | 0.00 | 0.00 | 90 | 1008.6 |
| 20260510071706 | 14 | 228 | 8.0 | 11.3 | 0.00 | 0.00 | 0.00 | 90 | 1008.6 |
| 20260510071205 | 14 | 224 | 8.0 | 11.3 | 0.00 | 0.00 | 0.00 | 90 | 1008.6 |
| 20260510070705 | 14 | 217 | 4.8 | 9.7 | 0.00 | 0.00 | 0.00 | 89 | 1008.6 |
| 20260510070206 | 14 | 184 | 0.0 | 0.0 | 0.00 | 0.00 | 0.00 | 89 | 1008.5 |
| 20260510065706 | 14 | 190 | 0.0 | 0.0 | 0.00 | 0.00 | 0.00 | 89 | 1008.6 |
| 20260510065205 | 14 | 197 | 0.0 | 3.2 | 0.00 | 0.00 | 0.00 | 89 | 1008.5 |
| 20260510064706 | 14 | 213 | 1.6 | 4.8 | 0.00 | 0.00 | 0.00 | 89 | 1008.5 |
| 20260510064205 | 14 | 193 | 3.2 | 4.8 | 0.00 | 0.00 | 0.00 | 89 | 1008.4 |
| 20260510063706 | 14 | 208 | 1.6 | 4.8 | 0.00 | 0.00 | 0.00 | 89 | 1008.3 |
| 20260510063205 | 15 | 215 | 3.2 | 8.0 | 0.00 | 0.00 | 0.00 | 89 | 1008.3 |
| 20260510062206 | 14 | 222 | 1.6 | 4.8 | 0.00 | 0.00 | 0.00 | 89 | 1008.5 |
| 20260510061205 | 14 | 214 | 0.0 | 4.8 | 0.00 | 0.00 | 0.00 | 88 | 1008.5 |
| 20260510060705 | 14 | 198 | 0.0 | 4.8 | 0.00 | 0.00 | 0.00 | 88 | 1008.5 |
| 20260510055705 | 14 | 221 | 4.8 | 9.7 | 0.00 | 0.00 | 0.00 | 88 | 1008.4 |
| 20260510055205 | 14 | 212 | 4.8 | 9.7 | 0.00 | 0.00 | 0.00 | 88 | 1008.5 |
| 20260510054705 | 14 | 210 | 4.8 | 8.0 | 0.00 | 0.00 | 0.00 | 87 | 1008.4 |
| 20260510054206 | 14 | 201 | 3.2 | 8.0 | 0.00 | 0.00 | 0.00 | 87 | 1008.5 |
| 20260510053205 | 14 | 204 | 1.6 | 4.8 | 0.00 | 0.00 | 0.00 | 85 | 1008.5 |
| 20260510052706 | 15 | 90 | 0.0 | 0.0 | 0.00 | 0.00 | 0.00 | 85 | 1008.6 |
| 20260510052205 | 15 | 34 | 0.0 | 0.0 | 0.00 | 0.00 | 0.00 | 85 | 1008.6 |
| 20260510051705 | 15 | 34 | 0.0 | 0.0 | 0.00 | 0.00 | 0.00 | 85 | 1008.6 |
| 20260510051206 | 15 | 34 | 0.0 | 0.0 | 0.00 | 0.00 | 0.00 | 85 | 1008.5 |
| 20260510050705 | 15 | 34 | 0.0 | 0.0 | 0.00 | 0.00 | 0.00 | 83 | 1008.6 |
| 20260510050205 | 15 | 34 | 0.0 | 0.0 | 0.00 | 0.00 | 0.00 | 83 | 1008.6 |
| 20260510045705 | 15 | 34 | 0.0 | 0.0 | 0.00 | 0.00 | 0.00 | 82 | 1008.6 |
| 20260510044705 | 15 | 20 | 0.0 | 0.0 | 0.00 | 0.00 | 0.00 | 81 | 1008.6 |
| 20260510043205 | 15 | 356 | 0.0 | 0.0 | 0.00 | 0.00 | 0.00 | 81 | 1008.6 |
| 20260510042706 | 15 | 356 | 0.0 | 0.0 | 0.00 | 0.00 | 0.00 | 80 | 1008.6 |
| 20260510042205 | 16 | 356 | 0.0 | 1.6 | 0.00 | 0.00 | 0.00 | 79 | 1008.6 |
| 20260510041206 | 16 | 158 | 0.0 | 3.2 | 0.00 | 0.00 | 0.00 | 78 | 1008.6 |
| 20260510040705 | 16 | 171 | 0.0 | 4.8 | 0.00 | 0.00 | 0.00 | 78 | 1008.6 |
| 20260510040205 | 16 | 173 | 1.6 | 4.8 | 0.00 | 0.00 | 0.00 | 78 | 1008.5 |
| 20260510035705 | 16 | 183 | 1.6 | 4.8 | 0.00 | 0.00 | 0.00 | 78 | 1008.6 |
| 20260510035206 | 16 | 178 | 4.8 | 8.0 | 0.00 | 0.00 | 0.00 | 79 | 1008.5 |
| 20260510034705 | 16 | 173 | 3.2 | 8.0 | 0.00 | 0.00 | 0.00 | 80 | 1008.5 |
| 20260510033705 | 16 | 179 | 1.6 | 4.8 | 0.00 | 0.00 | 0.00 | 81 | 1008.5 |
| 20260510033206 | 16 | 169 | 3.2 | 8.0 | 0.00 | 0.00 | 0.00 | 82 | 1008.4 |
| 20260510032706 | 16 | 166 | 1.6 | 8.0 | 0.00 | 0.00 | 0.00 | 81 | 1008.4 |
| 20260510031206 | 16 | 160 | 3.2 | 4.8 | 0.00 | 0.00 | 0.00 | 77 | 1008.4 |
| 20260510030705 | 16 | 142 | 0.0 | 3.2 | 0.00 | 0.00 | 0.00 | 77 | 1008.2 |
| 20260510030205 | 16 | 148 | 0.0 | 0.0 | 0.00 | 0.00 | 0.00 | 77 | 1008.2 |
| 20260510025706 | 16 | 150 | 0.0 | 0.0 | 0.00 | 0.00 | 0.00 | 76 | 1008.2 |
| 20260510025206 | 17 | 144 | 0.0 | 0.0 | 0.00 | 0.00 | 0.00 | 77 | 1008.2 |
| 20260510024205 | 17 | 143 | 0.0 | 0.0 | 0.00 | 0.00 | 0.00 | 78 | 1008.3 |
| 20260510023705 | 17 | 143 | 0.0 | 0.0 | 0.00 | 0.00 | 0.00 | 77 | 1008.2 |
| 20260510023205 | 17 | 143 | 0.0 | 0.0 | 0.00 | 0.00 | 0.00 | 76 | 1008.2 |
| 20260510022705 | 17 | 143 | 0.0 | 0.0 | 0.00 | 0.00 | 0.00 | 76 | 1008.1 |
| 20260510022205 | 17 | 136 | 0.0 | 0.0 | 0.00 | 0.00 | 0.00 | 77 | 1008.0 |
| 20260510021706 | 17 | 136 | 0.0 | 0.0 | 0.00 | 0.00 | 0.00 | 77 | 1008.0 |
| 20260510021205 | 17 | 134 | 0.0 | 0.0 | 0.00 | 0.00 | 0.00 | 77 | 1008.0 |
| 20260510020705 | 17 | 143 | 0.0 | 0.0 | 0.00 | 0.00 | 0.00 | 77 | 1007.9 |
| 20260510020206 | 17 | 141 | 0.0 | 0.0 | 0.00 | 0.00 | 0.00 | 76 | 1008.1 |
| 20260510015706 | 17 | 121 | 0.0 | 0.0 | 0.00 | 0.00 | 0.00 | 76 | 1007.9 |
| 20260510015205 | 17 | 130 | 0.0 | 3.2 | 0.00 | 0.00 | 0.00 | 76 | 1007.9 |
| 20260510014706 | 18 | 134 | 0.0 | 1.6 | 0.00 | 0.00 | 0.00 | 75 | 1007.9 |
| 20260510014205 | 18 | 134 | 0.0 | 1.6 | 0.00 | 0.00 | 0.00 | 72 | 1007.9 |
| 20260510013705 | 18 | 140 | 0.0 | 3.2 | 0.00 | 0.00 | 0.00 | 73 | 1007.9 |
| 20260510013205 | 18 | 130 | 0.0 | 1.6 | 0.00 | 0.00 | 0.00 | 71 | 1007.9 |
| 20260510012205 | 18 | 130 | 0.0 | 1.6 | 0.00 | 0.00 | 0.00 | 72 | 1007.8 |
| 20260510011205 | 18 | 151 | 1.6 | 4.8 | 0.00 | 0.00 | 0.00 | 70 | 1007.7 |
| 20260510005706 | 18 | 131 | 0.0 | 3.2 | 0.00 | 0.00 | 0.00 | 70 | 1007.8 |
| 20260510005205 | 18 | 128 | 1.6 | 4.8 | 0.00 | 0.00 | 0.00 | 70 | 1007.7 |
| 20260510004706 | 19 | 140 | 1.6 | 4.8 | 0.00 | 0.00 | 0.00 | 70 | 1007.7 |
| 20260510003706 | 19 | 138 | 1.6 | 4.8 | 0.00 | 0.00 | 0.00 | 71 | 1007.6 |
| 20260510002705 | 19 | 126 | 3.2 | 9.7 | 0.00 | 0.00 | 0.00 | 71 | 1007.4 |
| 20260510002205 | 19 | 152 | 4.8 | 11.3 | 0.00 | 0.00 | 0.00 | 70 | 1007.4 |
| 20260510001705 | 19 | 153 | 1.6 | 8.0 | 0.00 | 0.00 | 0.00 | 71 | 1007.4 |
| 20260510001205 | 19 | 148 | 3.2 | 4.8 | 0.00 | 0.00 | 0.00 | 71 | 1007.4 |
| 20260510000705 | 19 | 136 | 1.6 | 4.8 | 0.00 | 0.00 | 0.00 | 71 | 1007.4 |
| 20260510000205 | 19 | 138 | 3.2 | 4.8 | 0.00 | 0.00 | 0.00 | 69 | 1007.4 |
| 20260509235706 | 20 | 132 | 0.0 | 3.2 | 0.00 | 0.00 | 0.00 | 69 | 1007.4 |
| 20260509235205 | 20 | 154 | 1.6 | 4.8 | 0.00 | 0.00 | 0.00 | 68 | 1007.3 |
| 20260509234705 | 20 | 160 | 1.6 | 4.8 | 0.00 | 0.00 | 0.00 | 66 | 1007.3 |
| 20260509234205 | 20 | 172 | 1.6 | 8.0 | 0.00 | 0.00 | 0.00 | 66 | 1007.3 |
| 20260509233705 | 20 | 183 | 4.8 | 8.0 | 0.00 | 0.00 | 0.00 | 65 | 1007.2 |
| 20260509233205 | 20 | 187 | 8.0 | 11.3 | 0.00 | 0.00 | 0.00 | 65 | 1007.1 |
| 20260509232705 | 20 | 205 | 8.0 | 12.9 | 0.00 | 0.00 | 0.00 | 64 | 1007.0 |
| 20260509231705 | 20 | 182 | 6.4 | 9.7 | 0.00 | 0.00 | 0.00 | 63 | 1007.0 |
| 20260509231205 | 20 | 178 | 8.0 | 14.5 | 0.00 | 0.00 | 0.00 | 62 | 1007.0 |
| 20260509230705 | 21 | 193 | 8.0 | 12.9 | 0.00 | 0.00 | 0.00 | 62 | 1007.0 |
| 20260509230205 | 21 | 169 | 8.0 | 12.9 | 0.00 | 0.00 | 0.00 | 61 | 1007.0 |
| 20260509225705 | 21 | 167 | 6.4 | 14.5 | 0.00 | 0.00 | 0.00 | 61 | 1007.1 |
| 20260509225205 | 21 | 186 | 4.8 | 14.5 | 0.00 | 0.00 | 0.00 | 61 | 1007.0 |
| 20260509224205 | 21 | 187 | 6.4 | 9.7 | 0.00 | 0.00 | 0.00 | 60 | 1007.1 |
| 20260509223705 | 21 | 185 | 8.0 | 12.9 | 0.00 | 0.00 | 0.00 | 60 | 1007.3 |
| 20260509223204 | 21 | 192 | 8.0 | 12.9 | 0.00 | 0.00 | 0.00 | 60 | 1007.3 |
| 20260509221705 | 22 | 202 | 4.8 | 9.7 | 0.00 | 0.00 | 0.00 | 59 | 1007.1 |
| 20260509221205 | 22 | 171 | 6.4 | 12.9 | 0.00 | 0.00 | 0.00 | 58 | 1007.1 |
| 20260509220205 | 22 | 197 | 8.0 | 16.1 | 0.00 | 0.00 | 0.00 | 57 | 1007.1 |
| 20260509215705 | 22 | 174 | 8.0 | 19.3 | 0.00 | 0.00 | 0.00 | 56 | 1007.1 |
| 20260509215205 | 22 | 188 | 8.0 | 19.3 | 0.00 | 0.00 | 0.00 | 55 | 1007.0 |
| 20260509214705 | 23 | 212 | 11.3 | 19.3 | 0.00 | 0.00 | 0.00 | 53 | 1007.0 |
| 20260509214205 | 23 | 205 | 12.9 | 16.1 | 0.00 | 0.00 | 0.00 | 54 | 1006.9 |
| 20260509213705 | 23 | 215 | 11.3 | 16.1 | 0.00 | 0.00 | 0.00 | 53 | 1007.0 |
| 20260509212205 | 23 | 188 | 12.9 | 24.1 | 0.00 | 0.00 | 0.00 | 54 | 1006.8 |
| 20260509211705 | 23 | 186 | 14.5 | 22.5 | 0.00 | 0.00 | 0.00 | 53 | 1006.7 |
| 20260509211205 | 23 | 185 | 14.5 | 20.9 | 0.00 | 0.00 | 0.00 | 53 | 1006.6 |
| 20260509210705 | 23 | 211 | 11.3 | 24.1 | 0.00 | 0.00 | 0.00 | 56 | 1006.8 |
| 20260509210205 | 23 | 218 | 11.3 | 19.3 | 0.00 | 0.00 | 0.00 | 57 | 1006.8 |
| 20260509205705 | 23 | 182 | 12.9 | 25.7 | 0.00 | 0.00 | 0.00 | 58 | 1006.9 |
| 20260509205205 | 23 | 190 | 14.5 | 22.5 | 0.00 | 0.00 | 0.00 | 56 | 1006.9 |
| 20260509204705 | 23 | 201 | 11.3 | 14.5 | 0.00 | 0.00 | 0.00 | 56 | 1006.9 |
| 20260509204205 | 23 | 210 | 11.3 | 16.1 | 0.00 | 0.00 | 0.00 | 58 | 1006.8 |
| 20260509203705 | 23 | 193 | 11.3 | 20.9 | 0.00 | 0.00 | 0.00 | 58 | 1006.9 |
| 20260509203205 | 23 | 225 | 12.9 | 20.9 | 0.00 | 0.00 | 0.00 | 57 | 1006.9 |
| 20260509202705 | 22 | 207 | 11.3 | 19.3 | 0.00 | 0.00 | 0.00 | 58 | 1007.0 |
| 20260509201705 | 22 | 150 | 12.9 | 22.5 | 0.00 | 0.00 | 0.00 | 60 | 1007.0 |
| 20260509201205 | 22 | 179 | 11.3 | 22.5 | 0.00 | 0.00 | 0.00 | 60 | 1007.0 |
| 20260509200704 | 22 | 151 | 11.3 | 19.3 | 0.00 | 0.00 | 0.00 | 60 | 1007.1 |
| 20260509200205 | 22 | 166 | 9.7 | 20.9 | 0.00 | 0.00 | 0.00 | 63 | 1007.2 |
| 20260509195705 | 21 | 204 | 11.3 | 20.9 | 0.00 | 0.00 | 0.00 | 64 | 1007.3 |
| 20260509195206 | 21 | 175 | 11.3 | 19.3 | 0.00 | 0.00 | 0.00 | 64 | 1007.3 |
| 20260509194705 | 21 | 176 | 8.0 | 14.5 | 0.00 | 0.00 | 0.00 | 63 | 1007.3 |
| 20260509194205 | 21 | 153 | 11.3 | 22.5 | 0.00 | 0.00 | 0.00 | 63 | 1007.4 |
| 20260509193705 | 21 | 167 | 9.7 | 19.3 | 0.00 | 0.00 | 0.00 | 65 | 1007.5 |
| 20260509193205 | 21 | 180 | 8.0 | 16.1 | 0.00 | 0.00 | 0.00 | 63 | 1007.6 |
| 20260509192705 | 21 | 195 | 9.7 | 16.1 | 0.00 | 0.00 | 0.00 | 63 | 1007.6 |
| 20260509192205 | 21 | 168 | 8.0 | 12.9 | 0.00 | 0.00 | 0.00 | 63 | 1007.7 |
| 20260509191705 | 21 | 183 | 8.0 | 16.1 | 0.00 | 0.00 | 0.00 | 61 | 1008.0 |
| 20260509191205 | 21 | 210 | 9.7 | 16.1 | 0.00 | 0.00 | 0.00 | 62 | 1008.2 |
| 20260509190705 | 21 | 193 | 8.0 | 12.9 | 0.00 | 0.00 | 0.00 | 61 | 1008.2 |
| 20260509190205 | 21 | 187 | 9.7 | 22.5 | 0.00 | 0.00 | 0.00 | 61 | 1008.3 |
| 20260509185705 | 21 | 242 | 11.3 | 22.5 | 0.00 | 0.00 | 0.00 | 61 | 1008.4 |
| 20260509185205 | 21 | 214 | 12.9 | 19.3 | 0.00 | 0.00 | 0.00 | 62 | 1008.3 |
| 20260509184705 | 21 | 199 | 19.3 | 25.7 | 0.00 | 0.00 | 0.00 | 60 | 1008.3 |
| 20260509184205 | 21 | 190 | 16.1 | 22.5 | 0.00 | 0.00 | 0.00 | 62 | 1008.3 |
| 20260509183705 | 21 | 208 | 11.3 | 20.9 | 0.00 | 0.00 | 0.00 | 62 | 1008.4 |
| 20260509182705 | 21 | 195 | 14.5 | 22.5 | 0.00 | 0.00 | 0.00 | 62 | 1008.5 |
| 20260509182205 | 21 | 214 | 17.7 | 25.7 | 0.00 | 0.00 | 0.00 | 62 | 1008.5 |
| 20260509181705 | 21 | 184 | 12.9 | 22.5 | 0.00 | 0.00 | 0.00 | 62 | 1008.6 |
| 20260509181205 | 21 | 199 | 19.3 | 27.4 | 0.00 | 0.00 | 0.00 | 63 | 1008.8 |
| 20260509180705 | 21 | 227 | 16.1 | 24.1 | 0.00 | 0.00 | 0.00 | 64 | 1008.8 |
| 20260509180205 | 21 | 204 | 16.1 | 24.1 | 0.00 | 0.00 | 0.00 | 63 | 1008.9 |
| 20260509175705 | 21 | 194 | 14.5 | 19.3 | 0.00 | 0.00 | 0.00 | 63 | 1009.0 |
| 20260509175205 | 21 | 220 | 14.5 | 24.1 | 0.00 | 0.00 | 0.00 | 62 | 1008.9 |
| 20260509174705 | 21 | 198 | 14.5 | 19.3 | 0.00 | 0.00 | 0.00 | 61 | 1009.0 |
| 20260509174205 | 21 | 181 | 14.5 | 24.1 | 0.00 | 0.00 | 0.00 | 61 | 1009.0 |
| 20260509173705 | 21 | 198 | 12.9 | 25.7 | 0.00 | 0.00 | 0.00 | 62 | 1008.9 |
| 20260509173205 | 21 | 205 | 17.7 | 32.2 | 0.00 | 0.00 | 0.00 | 62 | 1009.0 |
| 20260509172204 | 21 | 224 | 19.3 | 27.4 | 0.00 | 0.00 | 0.00 | 60 | 1008.9 |
| 20260509171705 | 21 | 205 | 19.3 | 27.4 | 0.00 | 0.00 | 0.00 | 60 | 1009.0 |
| 20260509171205 | 21 | 222 | 19.3 | 27.4 | 0.00 | 0.00 | 0.00 | 60 | 1009.0 |
| 20260509170705 | 21 | 213 | 19.3 | 32.2 | 0.00 | 0.00 | 0.00 | 60 | 1009.0 |
| 20260509170204 | 21 | 203 | 20.9 | 32.2 | 0.00 | 0.00 | 0.00 | 60 | 1008.9 |
| 20260509165705 | 21 | 212 | 19.3 | 24.1 | 0.00 | 0.00 | 0.00 | 60 | 1009.0 |
| 20260509165205 | 21 | 229 | 19.3 | 29.0 | 0.00 | 0.00 | 0.00 | 60 | 1009.1 |
| 20260509164705 | 21 | 217 | 20.9 | 29.0 | 0.00 | 0.00 | 0.00 | 60 | 1009.3 |
| 20260509164205 | 22 | 214 | 17.7 | 33.8 | 0.00 | 0.00 | 0.00 | 59 | 1009.0 |
| 20260509163704 | 22 | 206 | 20.9 | 37.0 | 0.00 | 0.00 | 0.00 | 59 | 1009.0 |
| 20260509163205 | 22 | 197 | 25.7 | 41.8 | 0.00 | 0.00 | 0.00 | 59 | 1008.9 |
| 20260509162705 | 22 | 189 | 19.3 | 29.0 | 0.00 | 0.00 | 0.00 | 61 | 1008.9 |
| 20260509162205 | 22 | 216 | 24.1 | 38.6 | 0.00 | 0.00 | 0.00 | 60 | 1009.1 |
| 20260509161205 | 22 | 203 | 24.1 | 35.4 | 0.00 | 0.00 | 0.00 | 60 | 1009.5 |
| 20260509160705 | 21 | 199 | 25.7 | 35.4 | 0.00 | 0.00 | 0.00 | 58 | 1009.4 |
| 20260509160205 | 21 | 197 | 25.7 | 37.0 | 0.00 | 0.00 | 0.00 | 62 | 1009.5 |
| 20260509155705 | 21 | 210 | 27.4 | 32.2 | 0.00 | 0.00 | 0.00 | 62 | 1009.5 |
| 20260509154705 | 21 | 212 | 19.3 | 32.2 | 0.00 | 0.00 | 0.00 | 62 | 1009.3 |
| 20260509154205 | 20 | 214 | 20.9 | 32.2 | 0.00 | 0.00 | 0.00 | 62 | 1009.3 |
| 20260509153705 | 20 | 197 | 16.1 | 27.4 | 0.00 | 0.00 | 0.00 | 62 | 1009.4 |
| 20260509153205 | 20 | 167 | 16.1 | 22.5 | 0.00 | 0.00 | 0.00 | 63 | 1009.6 |
| 20260509152705 | 20 | 8 | 17.7 | 29.0 | 0.00 | 0.00 | 0.00 | 64 | 1009.7 |
| 20260509152205 | 20 | 58 | 20.9 | 32.2 | 0.00 | 0.00 | 0.00 | 62 | 1009.7 |
| 20260509151705 | 20 | 121 | 19.3 | 27.4 | 0.00 | 0.00 | 0.00 | 63 | 1009.7 |
| 20260509151204 | 20 | 220 | 22.5 | 32.2 | 0.00 | 0.00 | 0.00 | 63 | 1009.9 |
| 20260509150705 | 20 | 226 | 19.3 | 32.2 | 0.00 | 0.00 | 0.00 | 62 | 1010.0 |
| 20260509150205 | 20 | 208 | 25.7 | 32.2 | 0.00 | 0.00 | 0.00 | 63 | 1010.2 |
| 20260509145205 | 20 | 219 | 22.5 | 32.2 | 0.00 | 0.00 | 0.00 | 64 | 1010.4 |
| 20260509144705 | 19 | 191 | 20.9 | 29.0 | 0.00 | 0.00 | 0.00 | 65 | 1010.4 |
| 20260509144205 | 19 | 212 | 20.9 | 32.2 | 0.00 | 0.00 | 0.00 | 65 | 1010.3 |
| 20260509143205 | 19 | 230 | 19.3 | 29.0 | 0.00 | 0.00 | 0.00 | 66 | 1010.3 |
| 20260509142705 | 18 | 193 | 16.1 | 25.7 | 0.00 | 0.00 | 0.00 | 68 | 1010.4 |
| 20260509141205 | 18 | 211 | 19.3 | 27.4 | 0.00 | 0.00 | 0.00 | 68 | 1010.6 |
| 20260509140705 | 18 | 200 | 20.9 | 29.0 | 0.00 | 0.00 | 0.00 | 69 | 1010.5 |
| 20260509140205 | 18 | 194 | 17.7 | 25.7 | 0.00 | 0.00 | 0.00 | 69 | 1010.5 |
| 20260509135705 | 18 | 188 | 19.3 | 32.2 | 0.00 | 0.00 | 0.00 | 69 | 1010.5 |
| 20260509135205 | 18 | 195 | 17.7 | 25.7 | 0.00 | 0.00 | 0.00 | 69 | 1010.6 |
| 20260509134205 | 18 | 209 | 16.1 | 29.0 | 0.00 | 0.00 | 0.00 | 69 | 1010.6 |
| 20260509133705 | 18 | 192 | 16.1 | 27.4 | 0.00 | 0.00 | 0.00 | 70 | 1010.5 |
| 20260509133205 | 18 | 198 | 19.3 | 32.2 | 0.00 | 0.00 | 0.00 | 69 | 1010.6 |
| 20260509132705 | 18 | 183 | 16.1 | 27.4 | 0.00 | 0.00 | 0.00 | 70 | 1010.6 |
| 20260509132205 | 18 | 204 | 20.9 | 32.2 | 0.00 | 0.00 | 0.00 | 70 | 1010.8 |
| 20260509131705 | 18 | 255 | 20.9 | 32.2 | 0.00 | 0.00 | 0.00 | 71 | 1010.7 |
| 20260509131205 | 18 | 213 | 16.1 | 32.2 | 0.00 | 0.00 | 0.00 | 70 | 1010.6 |
| 20260509130705 | 18 | 212 | 22.5 | 32.2 | 0.00 | 0.00 | 0.00 | 70 | 1010.7 |
| 20260509130205 | 18 | 179 | 20.9 | 32.2 | 0.00 | 0.00 | 0.00 | 71 | 1010.7 |
| 20260509125204 | 18 | 216 | 20.9 | 27.4 | 0.00 | 0.00 | 0.00 | 71 | 1010.7 |
| 20260509124705 | 18 | 201 | 20.9 | 40.2 | 0.00 | 0.00 | 0.00 | 70 | 1010.7 |
| 20260509124205 | 17 | 172 | 22.5 | 35.4 | 0.00 | 0.00 | 0.00 | 71 | 1010.7 |
| 20260509123705 | 17 | 215 | 19.3 | 27.4 | 0.00 | 0.00 | 0.00 | 71 | 1010.7 |
| 20260509123205 | 17 | 199 | 20.9 | 29.0 | 0.00 | 0.00 | 0.00 | 72 | 1010.7 |
| 20260509122705 | 17 | 209 | 20.9 | 32.2 | 0.00 | 0.00 | 0.00 | 74 | 1010.7 |
| 20260509121205 | 16 | 203 | 24.1 | 33.8 | 0.00 | 0.00 | 0.00 | 75 | 1010.8 |
| 20260509120705 | 16 | 208 | 20.9 | 32.2 | 0.00 | 0.00 | 0.00 | 75 | 1010.8 |
| 20260509120205 | 16 | 214 | 22.5 | 32.2 | 0.00 | 0.00 | 0.00 | 76 | 1010.8 |
| 20260509115705 | 16 | 207 | 20.9 | 32.2 | 0.00 | 0.00 | 0.00 | 76 | 1010.7 |
| 20260509115205 | 16 | 42 | 16.1 | 32.2 | 0.00 | 0.00 | 0.00 | 75 | 1010.7 |
| 20260509114705 | 16 | 208 | 19.3 | 32.2 | 0.00 | 0.00 | 0.00 | 76 | 1010.8 |
| 20260509113705 | 16 | 205 | 20.9 | 29.0 | 0.00 | 0.00 | 0.00 | 77 | 1010.7 |
| 20260509113204 | 16 | 214 | 20.9 | 27.4 | 0.00 | 0.00 | 0.00 | 77 | 1010.7 |
| 20260509112704 | 15 | 190 | 19.3 | 35.4 | 0.00 | 0.00 | 0.00 | 78 | 1010.7 |
| 20260509111705 | 15 | 194 | 20.9 | 35.4 | 0.00 | 0.00 | 0.00 | 78 | 1010.7 |
| 20260509111205 | 15 | 213 | 20.9 | 35.4 | 0.00 | 0.00 | 0.00 | 78 | 1010.8 |
| 20260509110705 | 15 | 156 | 22.5 | 32.2 | 0.00 | 0.00 | 0.00 | 79 | 1010.8 |
| 20260509110205 | 15 | 294 | 24.1 | 35.4 | 0.00 | 0.00 | 0.00 | 79 | 1010.7 |
| 20260509105705 | 15 | 176 | 19.3 | 35.4 | 0.00 | 0.00 | 0.00 | 79 | 1010.8 |
| 20260509105205 | 15 | 189 | 19.3 | 32.2 | 0.00 | 0.00 | 0.00 | 79 | 1010.8 |
| 20260509104705 | 15 | 206 | 20.9 | 32.2 | 0.00 | 0.00 | 0.00 | 79 | 1010.8 |
| 20260509104205 | 15 | 208 | 20.9 | 32.2 | 0.00 | 0.00 | 0.00 | 80 | 1010.7 |
| 20260509103705 | 15 | 166 | 20.9 | 38.6 | 0.00 | 0.00 | 0.00 | 79 | 1010.6 |
| 20260509103206 | 15 | 193 | 19.3 | 32.2 | 0.00 | 0.00 | 0.00 | 79 | 1010.5 |
| 20260509102704 | 15 | 108 | 20.9 | 32.2 | 0.00 | 0.00 | 0.00 | 79 | 1010.6 |
| 20260509102205 | 15 | 178 | 19.3 | 32.2 | 0.00 | 0.00 | 0.00 | 79 | 1010.7 |
| 20260509101704 | 15 | 176 | 20.9 | 35.4 | 0.00 | 0.00 | 0.00 | 78 | 1010.7 |
| 20260509101205 | 15 | 173 | 14.5 | 32.2 | 0.00 | 0.00 | 0.00 | 78 | 1010.5 |
| 20260509100704 | 15 | 175 | 19.3 | 32.2 | 0.00 | 0.00 | 0.00 | 78 | 1010.5 |
| 20260509095705 | 15 | 196 | 17.7 | 32.2 | 0.00 | 0.00 | 0.00 | 78 | 1010.5 |